Wind_Speed
2 2 2 1 1 2 2 3 3 4 5 4 4 3 4 5 6 6 6 6 6 6 6 6 7 7 7 6 6 6 6 5 5 6 5 6 5 5 6 6 6 6 7 7 8 8 9 8 9
2 1 1 1 1 2 2 3 4 4 5 5 4 4 5 6 6 7 7 7 7 7 7 7 8 8 8 7 7 7 7 6 6 6 6 6 5 5 6 6 6 6 7 7 8 8 8 8 9
2 1 1 1 2 3 3 4 4 4 5 6 6 6 6 7 7 7 7 8 8 7 8 8 8 8 8 7 7 7 8 7 6 6 6 6 5 6 6 6 7 7 7 8 8 8 8 9 9
2 2 2 2 3 4 4 5 5 6 7 7 7 7 7 8 8 8 8 8 8 8 9 9 9 8 8 7 7 7 8 7 6 6 6 6 6 6 6 7 8 8 7 8 8 9 8 9 9
2 2 3 3 4 5 5 6 6 7 7 8 8 8 8 8 8 8 9 8 9 9 9 9 8 8 8 7 7 7 7 6 7 7 6 6 6 5 5 6 7 8 8 8 8 9 8 9 9
3 4 4 4 5 5 6 7 8 8 8 9 9 9 9 8 9 9 9 9 10 9 9 8 8 8 8 8 8 7 7 7 6 6 6 6 6 6 6 6 6 6 7 7 8 8 8 9 9
4 4 5 5 5 6 7 8 8 8 9 9 9 9 9 9 9 9 9 10 10 9 8 8 8 9 8 8 8 8 8 8 7 6 6 6 6 6 6 6 6 6 6 7 8 8 8 8 8
5 5 5 6 6 7 8 8 9 9 9 9 9 9 9 9 9 10 10 9 9 9 7 7 8 8 8 8 7 7 7 7 7 7 6 6 6 6 6 6 6 6 6 6 6 6 7 7 7
5 5 6 6 7 8 8 8 9 9 10 10 9 10 9 9 10 10 9 8 8 7 7 6 7 7 7 7 6 6 7 7 7 7 6 5 6 6 6 6 6 5 5 4 4 5 5 6 6
6 6 7 7 8 9 9 9 10 10 10 10 10 10 10 10 10 9 9 8 8 7 7 6 7 7 6 7 7 6 6 7 7 6 6 5 5 5 5 5 5 5 4 4 3 4 5 6 6
7 7 7 8 9 9 10 10 10 10 11 10 10 10 10 10 10 10 9 8 8 8 7 7 7 7 7 7 7 7 6 6 6 6 4 4 5 4 4 4 4 4 4 3 3 4 5 5 5
7 7 8 9 10 10 10 10 10 11 11 10 10 10 10 10 9 9 9 9 8 8 8 8 7 7 7 7 6 6 5 6 6 5 4 4 4 4 4 4 4 3 3 3 2 2 3 2 3
8 8 8 9 10 10 10 11 11 11 11 10 10 10 10 10 9 9 9 9 9 9 9 9 8 8 7 6 6 5 5 5 5 5 4 4 3 4 4 3 3 2 3 2 2 2 1 2 2
9 9 9 9 10 11 11 11 11 10 10 10 10 10 10 9 9 9 9 8 8 9 9 8 8 7 6 5 4 4 5 5 5 5 4 4 4 4 4 3 2 2 2 1 1 2 2 2 2
9 9 9 9 10 11 11 11 11 11 10 10 10 10 10 9 9 9 9 8 8 8 8 7 6 5 5 5 4 4 4 4 5 5 5 4 4 4 3 3 2 2 1 1 1 1 1 1 1
9 10 9 10 10 12 12 12 11 11 10 10 10 10 10 10 9 8 7 8 9 8 7 7 6 5 4 4 3 4 4 4 5 5 5 4 4 4 4 3 2 2 2 2 1 1 1 0 1
10 10 10 10 11 12 12 12 12 12 11 11 11 11 10 10 9 8 8 8 9 8 7 6 5 5 4 5 4 3 4 4 4 4 4 4 3 4 4 3 2 2 2 2 1 1 1 0 1
10 10 11 11 11 11 12 12 12 12 11 11 11 11 11 10 10 9 9 8 8 7 6 6 5 5 4 4 3 3 4 4 3 4 4 3 3 3 3 3 2 1 1 1 1 1 1 1 0
10 11 11 11 11 12 11 11 11 11 11 11 12 12 11 10 10 9 9 9 8 7 6 5 5 5 4 3 3 3 3 3 3 4 3 2 2 3 2 2 2 1 1 2 1 0 1 1 0
10 11 11 11 11 11 12 11 12 11 11 12 12 12 11 11 11 10 10 9 7 7 6 6 5 5 4 4 4 3 3 3 3 3 3 2 2 2 2 1 1 1 1 1 1 0 0 1 1
11 11 12 12 11 11 11 11 12 12 12 12 12 12 11 12 11 10 9 8 7 7 7 6 5 5 4 4 4 3 3 3 3 2 2 2 2 2 1 1 1 1 1 1 0 1 1 1 1
12 12 12 12 12 11 11 11 11 12 12 12 12 12 12 12 11 10 9 8 7 7 7 6 5 5 5 4 4 4 3 3 3 2 2 2 1 1 1 0 0 1 1 0 1 1 1 1 0
13 12 12 12 12 11 11 12 12 13 13 12 12 12 11 11 10 10 10 9 8 7 7 7 6 5 5 5 4 4 4 3 3 3 3 2 1 1 1 0 0 0 1 1 1 1 1 1 1
13 13 13 12 12 12 11 12 13 14 14 13 12 12 11 11 10 10 10 10 9 8 8 8 7 6 6 5 5 5 4 4 3 3 3 2 2 1 0 0 1 1 1 1 1 1 1 1 1
14 14 13 12 11 12 13 13 14 14 14 14 13 13 12 11 10 10 10 10 10 10 9 8 8 7 7 6 6 5 5 4 4 3 3 2 2 1 1 1 1 1 1 1 1 1 1 1 2
15 14 13 11 10 11 13 14 15 15 14 14 14 13 13 11 11 11 11 11 10 10 10 9 8 8 7 7 6 6 6 5 4 4 3 3 3 2 1 0 1 2 2 1 1 0 1 2 2
16 15 14 14 13 13 13 14 16 16 15 14 14 14 13 12 12 12 12 12 11 11 10 10 9 9 8 8 7 7 6 6 5 4 4 4 3 2 2 1 1 2 2 1 1 1 2 2 3
18 16 16 16 15 13 14 15 16 16 15 15 15 14 14 13 13 12 12 13 12 12 11 10 10 10 9 9 8 8 7 7 6 6 5 5 4 4 3 3 2 2 2 2 2 2 3 3 4
18 18 18 18 17 15 14 16 18 17 16 16 16 15 14 14 13 13 13 13 13 13 12 11 10 11 10 10 10 9 8 8 7 7 6 6 6 5 5 4 4 4 4 3 3 3 3 4 4
20 20 19 19 18 17 17 19 19 18 17 17 17 16 15 14 14 14 14 14 14 13 13 11 11 11 11 11 11 11 10 9 8 8 8 7 6 6 6 5 6 5 5 5 5 4 4 4 5
Wind_Direction
52 37 41 46 28 8 356 345 346 344 346 345 338 330 325 317 309 302 303 297 292 289 287 293 297 293 292 285 281 275 267 278 285 286 281 272 274 271 270 266 265 264 257 251 248 246 239 237 238
25 15 25 20 352 334 330 321 319 327 331 332 330 324 317 315 313 308 302 296 288 285 287 291 295 294 295 291 291 287 278 282 290 287 284 276 274 273 279 277 273 268 260 253 256 252 242 237 239
359 350 336 320 314 316 307 310 311 315 315 316 315 312 310 313 314 306 303 299 290 289 289 292 295 294 294 292 293 295 285 288 294 296 298 294 283 277 278 282 279 273 263 258 258 251 246 241 240
332 330 312 298 308 308 301 303 301 307 308 307 307 304 304 307 309 305 300 296 292 291 289 288 294 295 298 300 301 300 291 289 296 299 299 298 290 281 277 282 280 277 270 263 256 251 246 245 243
309 311 299 302 306 301 299 300 300 303 307 306 304 302 303 307 306 303 298 295 295 295 289 292 295 301 311 307 304 308 303 297 299 301 299 297 296 289 285 286 282 277 272 264 258 254 249 246 245
304 301 293 300 300 295 298 299 302 305 303 303 304 303 306 306 306 302 297 296 295 297 292 292 291 300 307 307 302 309 309 302 302 304 294 296 293 284 289 287 283 283 277 266 259 256 250 246 247
290 296 296 295 295 293 297 299 305 308 308 305 302 302 307 307 305 303 298 298 295 293 293 292 294 297 301 302 303 306 311 308 306 304 299 295 294 287 285 283 280 284 284 272 260 254 248 246 244
292 291 293 293 292 290 291 297 300 302 304 304 301 300 304 306 305 305 301 300 299 296 296 294 295 297 300 302 304 311 315 315 312 304 301 300 294 290 285 281 282 283 284 276 262 248 243 239 239
295 287 292 291 291 290 291 294 296 297 299 302 300 300 301 303 304 304 303 302 302 303 300 300 301 301 301 303 304 310 316 320 319 308 301 300 299 296 292 283 285 285 284 277 260 249 241 237 240
292 288 291 292 292 292 292 292 294 295 296 297 297 297 297 298 303 304 302 301 303 303 299 304 304 303 304 304 308 312 316 321 322 314 306 299 299 298 294 287 284 287 280 277 266 249 244 243 242
293 289 293 292 292 291 293 294 296 297 295 294 295 296 296 296 299 304 300 297 297 297 303 304 303 305 309 309 309 314 319 328 333 326 318 312 306 306 301 299 293 289 276 271 271 241 246 247 243
295 294 294 292 292 289 293 297 298 299 298 298 297 296 295 295 298 300 300 296 296 294 298 301 304 305 306 306 307 312 318 329 335 332 322 315 311 316 316 306 292 281 276 270 265 235 238 239 233
293 297 297 294 294 291 293 298 298 299 301 302 301 299 298 297 296 300 300 297 294 297 299 299 300 305 305 305 308 310 317 325 331 334 323 314 313 329 323 309 290 270 265 260 264 260 255 247 245
294 298 300 301 297 293 295 297 298 300 302 302 301 298 298 298 297 298 298 300 299 297 298 296 296 302 305 305 306 313 320 326 334 337 337 328 323 331 332 317 308 289 289 283 270 266 263 267 256
294 296 298 300 300 299 299 297 299 300 300 300 297 296 297 298 297 297 296 299 302 300 298 295 296 298 299 301 301 306 315 321 339 338 333 331 327 329 335 331 321 307 312 303 289 264 257 260 218
293 295 296 299 300 299 298 298 300 299 296 297 296 296 296 295 294 297 298 303 304 301 295 291 292 292 291 295 294 306 315 319 331 334 332 335 330 322 334 336 335 334 347 355 345 316 272 242 189
299 298 299 299 300 299 299 299 301 300 295 294 293 294 293 290 286 288 294 299 304 301 293 285 283 286 289 292 294 300 312 321 328 335 334 333 330 321 327 340 344 350 350 351 4 359 315 223 207
300 301 301 301 301 299 299 300 300 297 297 294 291 293 293 286 281 284 291 296 301 299 292 282 273 280 292 299 296 303 312 315 322 335 340 338 335 335 335 337 349 1 18 48 54 63 85 135 254
292 296 299 300 303 302 299 300 302 300 298 293 290 291 291 288 279 280 287 290 293 289 287 284 274 276 282 295 304 305 310 315 319 328 341 354 1 359 357 352 354 34 83 89 99 94 72 47 2
285 290 296 300 301 302 299 299 300 300 300 297 294 290 288 285 279 277 283 286 282 277 279 281 278 271 273 281 296 298 311 316 316 324 337 349 354 2 14 27 42 74 88 87 114 109 68 26 334
281 285 291 296 299 296 298 298 297 300 301 297 294 292 287 282 278 275 279 280 275 271 274 276 270 265 273 277 277 282 299 315 323 325 321 325 335 350 9 21 68 94 103 115 144 186 260 310 321
278 284 287 291 295 297 299 301 304 304 304 298 292 291 286 281 277 272 274 271 269 267 270 272 267 266 269 269 269 276 285 291 304 320 319 311 317 329 345 355 68 116 100 106 173 204 224 237 331
273 279 283 288 292 293 293 296 302 304 304 302 296 294 287 282 275 270 269 262 263 265 266 268 266 264 259 263 266 269 276 278 285 297 309 306 302 322 321 281 234 143 98 102 160 205 246 243 284
269 273 278 284 287 290 295 295 297 299 301 301 298 293 288 281 274 270 267 261 259 260 262 262 263 258 252 256 260 264 269 271 277 285 291 281 279 281 41 137 143 131 114 108 166 206 253 292 300
267 270 275 281 292 293 295 293 292 294 298 299 297 293 288 280 274 271 265 262 259 258 258 255 256 253 248 248 255 259 264 269 272 278 283 256 248 235 165 152 163 163 161 146 139 129 278 307 314
266 268 270 273 281 288 292 295 293 294 295 293 292 290 285 280 274 272 267 264 261 258 256 251 248 248 248 245 249 257 260 263 266 269 265 247 245 232 202 179 180 184 195 201 193 261 297 313 324
263 263 265 264 265 270 278 285 291 293 292 292 290 288 284 280 276 272 265 263 260 258 256 251 247 245 245 242 248 252 255 256 259 263 252 253 248 235 236 259 212 209 215 219 229 288 305 311 321
259 260 258 259 262 263 271 278 285 286 291 291 289 288 285 278 274 273 265 258 257 257 254 251 248 243 242 245 252 252 251 253 253 255 249 249 247 246 252 259 257 235 229 234 255 279 294 304 310
258 257 257 259 261 262 264 267 276 283 288 290 287 284 283 277 274 271 266 261 258 254 250 248 246 244 246 246 248 250 251 251 248 245 249 249 246 247 247 257 254 241 244 252 262 274 285 293 305
257 256 257 258 259 260 259 264 271 278 283 284 284 281 279 276 273 271 267 263 258 252 247 248 246 246 247 248 246 249 248 243 242 244 245 242 244 246 248 254 252 248 250 254 259 270 282 287 296
Height
5884 5884 5884 5884 5885 5885 5884 5884 5883 5883 5883 5883 5882 5883 5882 5883 5883 5885 5882 5880 5880 5880 5879 5879 5878 5878 5877 5877 5876 5876 5876 5876 5876 5875 5875 5875 5875 5876 5876 5876 5876 5876 5877 5877 5877 5878 5878 5879 5880
5884 5884 5885 5885 5884 5884 5884 5884 5883 5883 5883 5883 5883 5883 5882 5882 5882 5881 5880 5880 5879 5879 5879 5878 5877 5877 5876 5876 5875 5875 5875 5875 5875 5874 5874 5874 5874 5875 5875 5875 5875 5875 5875 5875 5876 5876 5876 5877 5878
5884 5884 5885 5885 5884 5884 5884 5884 5883 5883 5883 5883 5883 5883 5882 5882 5881 5880 5879 5879 5879 5878 5878 5877 5877 5876 5875 5875 5874 5874 5874 5874 5874 5874 5874 5874 5873 5873 5873 5873 5873 5873 5873 5874 5874 5875 5875 5875 5876
5885 5885 5886 5885 5884 5884 5883 5883 5883 5883 5883 5882 5882 5882 5881 5881 5880 5880 5879 5878 5878 5877 5877 5876 5876 5875 5874 5874 5873 5873 5873 5872 5872 5872 5872 5872 5872 5872 5872 5872 5872 5872 5872 5872 5872 5873 5873 5874 5874
5884 5885 5885 5884 5884 5883 5883 5883 5883 5882 5882 5882 5882 5881 5880 5880 5879 5879 5878 5877 5877 5876 5876 5875 5875 5874 5873 5873 5873 5872 5872 5871 5871 5871 5871 5871 5871 5871 5871 5871 5870 5870 5870 5870 5871 5871 5871 5872 5873
5884 5884 5884 5883 5883 5883 5883 5882 5882 5882 5881 5881 5880 5880 5879 5879 5878 5878 5877 5876 5876 5875 5875 5874 5874 5873 5873 5872 5872 5871 5871 5870 5870 5870 5870 5870 5870 5869 5869 5869 5869 5869 5869 5869 5869 5869 5870 5870 5871
5884 5884 5883 5883 5883 5882 5882 5882 5881 5881 5880 5880 5880 5879 5878 5878 5877 5876 5876 5875 5874 5874 5874 5873 5873 5872 5872 5871 5871 5870 5870 5870 5869 5869 5869 5868 5868 5868 5868 5868 5868 5867 5867 5867 5867 5868 5868 5869 5869
5882 5883 5882 5882 5882 5882 5881 5881 5880 5880 5880 5879 5879 5878 5878 5877 5876 5875 5875 5874 5873 5873 5872 5872 5872 5871 5871 5870 5870 5869 5869 5869 5868 5868 5867 5867 5867 5867 5867 5867 5866 5866 5866 5865 5865 5866 5867 5867 5868
5882 5883 5881 5881 5881 5881 5880 5880 5880 5879 5879 5878 5877 5877 5876 5876 5875 5874 5873 5873 5872 5872 5871 5871 5871 5870 5870 5869 5869 5868 5868 5868 5867 5867 5866 5866 5866 5866 5865 5865 5865 5865 5865 5864 5864 5865 5865 5866 5867
5881 5881 5881 5880 5880 5879 5879 5879 5879 5878 5877 5877 5876 5876 5875 5875 5874 5873 5872 5872 5871 5871 5871 5870 5870 5869 5869 5868 5868 5868 5867 5867 5866 5866 5865 5865 5865 5865 5864 5864 5864 5864 5864 5863 5863 5864 5864 5865 5866
5880 5880 5879 5879 5878 5878 5878 5878 5877 5877 5876 5876 5875 5875 5874 5873 5873 5872 5871 5871 5871 5870 5869 5869 5869 5869 5868 5868 5867 5867 5867 5866 5865 5865 5864 5864 5864 5863 5863 5863 5863 5863 5863 5863 5863 5863 5863 5864 5865
5879 5878 5878 5878 5877 5877 5877 5877 5876 5875 5875 5874 5873 5873 5872 5872 5871 5871 5870 5870 5870 5869 5869 5869 5868 5868 5867 5867 5866 5866 5866 5865 5865 5864 5864 5863 5863 5863 5862 5862 5862 5862 5862 5862 5862 5862 5863 5863 5864
5878 5877 5877 5876 5876 5876 5875 5875 5875 5874 5873 5872 5872 5871 5871 5870 5870 5870 5869 5869 5869 5868 5868 5868 5867 5867 5866 5866 5866 5866 5865 5865 5864 5863 5863 5863 5863 5862 5862 5862 5861 5861 5861 5861 5862 5862 5862 5863 5863
5876 5876 5875 5875 5875 5874 5874 5874 5873 5873 5872 5871 5870 5870 5870 5869 5869 5868 5868 5868 5868 5867 5867 5867 5866 5866 5866 5866 5865 5865 5865 5864 5864 5863 5863 5863 5862 5862 5861 5861 5861 5861 5861 5861 5861 5862 5862 5862 5863
5874 5874 5874 5874 5873 5873 5873 5873 5872 5871 5870 5870 5869 5869 5868 5868 5867 5867 5867 5867 5867 5866 5866 5866 5865 5865 5865 5865 5865 5865 5864 5864 5863 5863 5862 5862 5862 5862 5861 5861 5861 5861 5861 5861 5861 5862 5862 5862 5863
5873 5873 5873 5872 5871 5871 5872 5871 5870 5869 5869 5869 5868 5868 5867 5867 5866 5866 5866 5866 5865 5865 5865 5865 5865 5865 5865 5865 5865 5865 5864 5864 5863 5863 5862 5862 5862 5861 5861 5861 5861 5860 5860 5861 5861 5862 5862 5863 5863
5871 5871 5871 5871 5870 5869 5869 5868 5868 5867 5867 5867 5867 5866 5866 5865 5865 5865 5865 5865 5864 5864 5864 5864 5864 5864 5864 5864 5864 5864 5864 5863 5863 5863 5862 5862 5861 5861 5861 5860 5860 5860 5861 5861 5861 5862 5862 5863 5863
5870 5869 5869 5868 5868 5867 5866 5866 5866 5865 5865 5865 5865 5864 5864 5864 5864 5864 5864 5864 5863 5863 5863 5863 5863 5863 5864 5864 5864 5864 5863 5863 5863 5863 5862 5862 5861 5861 5861 5860 5860 5860 5861 5861 5861 5862 5862 5863 5863
5869 5868 5868 5867 5866 5865 5865 5864 5864 5863 5863 5863 5863 5863 5862 5862 5862 5862 5862 5862 5862 5862 5862 5862 5862 5863 5863 5863 5863 5863 5863 5863 5863 5862 5862 5862 5861 5861 5861 5861 5861 5861 5861 5861 5862 5862 5863 5863 5863
5867 5867 5866 5866 5865 5864 5863 5863 5862 5862 5861 5861 5861 5861 5860 5860 5860 5861 5861 5861 5861 5861 5861 5861 5861 5862 5862 5863 5863 5863 5863 5863 5863 5862 5862 5862 5861 5861 5861 5861 5861 5861 5862 5862 5862 5863 5863 5863 5864
5865 5865 5864 5864 5863 5862 5862 5862 5861 5860 5860 5859 5859 5859 5858 5858 5859 5859 5859 5859 5859 5859 5860 5860 5861 5861 5861 5862 5862 5862 5863 5862 5862 5862 5862 5861 5861 5861 5861 5861 5861 5861 5862 5862 5863 5863 5863 5864 5864
5863 5863 5862 5862 5861 5861 5861 5860 5860 5858 5858 5858 5857 5857 5857 5857 5857 5857 5858 5858 5858 5858 5859 5859 5859 5860 5860 5861 5861 5862 5862 5862 5862 5862 5861 5861 5861 5861 5861 5861 5861 5862 5862 5862 5863 5863 5863 5864 5864
5861 5861 5860 5860 5859 5859 5859 5858 5858 5857 5856 5856 5855 5855 5855 5855 5855 5856 5856 5856 5857 5857 5858 5858 5858 5859 5859 5860 5861 5861 5861 5861 5861 5861 5861 5861 5861 5861 5861 5861 5862 5862 5862 5863 5863 5863 5864 5864 5864
5858 5859 5858 5858 5857 5858 5857 5857 5856 5854 5854 5854 5854 5853 5853 5853 5853 5854 5854 5855 5856 5856 5856 5857 5857 5858 5859 5859 5860 5860 5861 5861 5861 5861 5861 5861 5861 5861 5861 5861 5862 5862 5863 5863 5863 5864 5864 5864 5865
5856 5856 5856 5856 5855 5856 5855 5855 5855 5853 5852 5852 5852 5851 5851 5851 5852 5852 5853 5853 5854 5854 5855 5856 5856 5857 5857 5858 5859 5859 5860 5860 5860 5860 5860 5860 5861 5861 5861 5862 5862 5863 5863 5863 5864 5864 5865 5865 5865
5852 5853 5854 5855 5854 5854 5853 5853 5853 5851 5851 5850 5850 5850 5849 5850 5850 5850 5851 5851 5852 5853 5853 5854 5854 5855 5856 5857 5858 5858 5859 5859 5859 5860 5860 5860 5861 5861 5861 5862 5862 5863 5863 5864 5864 5864 5865 5865 5865
5849 5849 5851 5851 5851 5851 5851 5851 5849 5849 5848 5848 5848 5848 5847 5848 5848 5848 5849 5849 5850 5850 5851 5852 5852 5853 5854 5855 5856 5857 5857 5858 5858 5859 5859 5860 5860 5861 5861 5862 5862 5863 5863 5864 5864 5864 5865 5865 5865
5845 5846 5847 5847 5848 5848 5849 5848 5847 5846 5846 5846 5845 5845 5845 5845 5845 5846 5846 5847 5848 5848 5849 5849 5850 5851 5852 5853 5854 5855 5856 5856 5857 5858 5859 5859 5860 5860 5861 5862 5862 5862 5863 5864 5864 5864 5864 5864 5864
5841 5842 5842 5843 5844 5845 5846 5848 5844 5843 5843 5843 5843 5842 5843 5843 5843 5843 5844 5844 5845 5846 5846 5847 5848 5849 5850 5851 5852 5853 5854 5855 5855 5856 5857 5858 5859 5860 5860 5861 5861 5862 5863 5863 5864 5864 5864 5864 5864
5835 5837 5838 5840 5840 5841 5842 5844 5841 5840 5840 5840 5839 5839 5839 5840 5840 5840 5841 5841 5842 5843 5844 5845 5846 5847 5848 5848 5849 5850 5852 5853 5854 5855 5856 5857 5858 5859 5859 5860 5861 5861 5862 5862 5863 5863 5863 5863 5863